Retour au catalogue

STARLINK-31220

ActifCommunicationsVLEO
NORAD 59039·PAYLOAD·🇺🇸 United States

Lancé Feb 25, 2024 depuis Cape Canaveral Space Force Station

Loading…

Prochains Passages (prochaines 24 heures)

TLE

FraisSource: CelesTrak SupGP

Époque: Sep 14, 2026, 21:19 UTC

1 59039C 24038S   26257.88868056  .00059474  00000+0  21545-2 0  2578
2 59039  43.0012  38.4868 0001505 272.8659 102.8492 15.27543825    14

Suivez STARLINK-31220 en temps réel avec AllMySat

Download on the App Store